This is the latest recevied weather packets stored in our database for station/object 9M8ZAL-13. If no packets are shown the sender has not sent any weather packets the latest 10 day(s).
| Time | Temp. | Humidity | Pressure | Rain* | Wind** | Luminosity | Snow |
|---|---|---|---|---|---|---|---|
| 1777172938 | 31.11° C | - | 1009.3 hPa | - | - | 1004 W/m² | - |
| 1777172338 | 31.67° C | - | 1009.3 hPa | - | - | 1004 W/m² | - |
| 1777171738 | 32.22° C | - | 1009.2 hPa | - | - | 1007 W/m² | - |
| 1777171138 | 32.22° C | - | 1009.3 hPa | - | - | 1007 W/m² | - |
| 1777170538 | 31.67° C | - | 1009.4 hPa | - | - | 1007 W/m² | - |
| 1777169938 | 31.67° C | - | 1009.6 hPa | - | - | 1006 W/m² | - |
| 1777169338 | 31.11° C | - | 1009.6 hPa | - | - | 1005 W/m² | - |
| 1777168740 | 31.11° C | - | 1009.9 hPa | - | - | 1005 W/m² | - |
| 1777168138 | 31.11° C | - | 1010 hPa | - | - | 1005 W/m² | - |
| 1777167538 | 31.11° C | - | 1009.9 hPa | - | - | 1005 W/m² | - |
| 1777166938 | 30.56° C | - | 1010 hPa | - | - | 1004 W/m² | - |
| 1777166338 | 30.56° C | - | 1009.9 hPa | - | - | 1005 W/m² | - |
| 1777165738 | 30.56° C | - | 1009.9 hPa | - | - | 1004 W/m² | - |
| 1777165138 | 30.56° C | - | 1009.7 hPa | - | - | 1004 W/m² | - |
| 1777164538 | 30° C | - | 1009.6 hPa | - | - | 1005 W/m² | - |
| 1777163938 | 30° C | - | 1009.5 hPa | - | - | 1004 W/m² | - |
| 1777163337 | 29.44° C | - | 1009.4 hPa | - | - | 1004 W/m² | - |
| 1777162737 | 28.89° C | - | 1009.3 hPa | - | - | 1004 W/m² | - |
| 1777162137 | 28.33° C | - | 1009.3 hPa | - | - | 1003 W/m² | - |
| 1777161537 | 28.33° C | - | 1009.2 hPa | - | - | 1003 W/m² | - |
| 1777160937 | 28.33° C | - | 1009.4 hPa | - | - | 1002 W/m² | - |
| 1777160337 | 28.33° C | - | 1009.5 hPa | - | - | 1001 W/m² | - |
| 1777159737 | 28.33° C | - | 1009.5 hPa | - | - | 1000 W/m² | - |
| 1777159137 | 28.89° C | - | 1009.5 hPa | - | - | 1000 W/m² | - |
| 1777158537 | 28.33° C | - | 1009.2 hPa | - | - | 1000 W/m² | - |
* Rain since midnight (hover to see other rain measurements)
** Current wind speed in m/s (hover to see current wind gust speed)